EW8668 Weather Reports


time (UTC)temp
C
wind
direction
speed
KPH
gust
KPH
rain 1hr
cm
rain 24hr
cm
rain mn
cm
humidity
%
barometer
mb
20260507104804 20 20 3.2 9.7 0.00 0.00 0.00 46 1012.3
20260507104306 20 321 3.2 12.9 0.00 0.00 0.00 47 1012.4
20260507103805 20 14 3.2 12.9 0.00 0.00 0.00 46 1012.8
20260507101805 19 12 8.0 14.5 0.00 0.00 0.00 49 1012.8
20260507100805 20 14 3.2 9.7 0.00 0.00 0.00 46 1012.9
20260507100304 20 73 4.8 12.9 0.00 0.00 0.00 46 1012.8
20260507094804 20 34 1.6 8.0 0.00 0.00 0.00 49 1013.0
20260507094304 19 343 3.2 9.7 0.00 0.00 0.00 49 1013.1
20260507093804 18 192 3.2 9.7 0.00 0.00 0.00 53 1013.2
20260507091804 18 4 3.2 12.9 0.00 0.00 0.00 55 1013.0
20260507090304 19 24 1.6 12.9 0.00 0.00 0.00 54 1013.0
20260507084805 18 35 4.8 9.7 0.00 0.00 0.00 56 1013.0
20260507084306 17 22 4.8 11.3 0.00 0.00 0.00 56 1012.9
20260507083804 17 14 1.6 12.9 0.00 0.00 0.00 58 1013.0
20260507081305 17 331 3.2 8.0 0.00 0.00 0.00 57 1013.1
20260507080804 17 252 3.2 9.7 0.00 0.00 0.00 57 1013.4
20260507080304 17 36 4.8 11.3 0.00 0.00 0.00 55 1013.2
20260507074804 16 61 4.8 8.0 0.00 0.00 0.00 61 1013.2
20260507074305 16 44 4.8 9.7 0.00 0.00 0.00 60 1013.1
20260507073804 16 38 1.6 8.0 0.00 0.00 0.00 63 1013.2
20260507073305 16 318 1.6 8.0 0.00 0.00 0.00 64 1013.1
20260507071805 16 290 1.6 4.8 0.00 0.00 0.00 72 1013.3
20260507071305 16 67 0.0 4.8 0.00 0.00 0.00 73 1013.4
20260507070804 15 355 1.6 4.8 0.00 0.00 0.00 74 1013.2
20260507064804 16 54 3.2 4.8 0.00 0.00 0.00 75 1013.0
20260507064304 15 68 0.0 8.0 0.00 0.00 0.00 79 1013.0
20260507063804 15 28 1.6 3.2 0.00 0.00 0.00 79 1013.2
20260507063305 15 292 1.6 4.8 0.00 0.00 0.00 78 1013.0
20260507061804 13 157 0.0 3.2 0.00 0.00 0.00 84 1013.3
20260507061304 12 82 1.6 4.8 0.00 0.00 0.00 87 1013.6
20260507060804 13 32 1.6 3.2 0.00 0.00 0.00 87 1013.5
20260507054804 11 79 0.0 3.2 0.00 0.00 0.00 92 1013.4
20260507054304 11 50 1.6 3.2 0.00 0.00 0.00 93 1013.5
20260507053803 10 101 1.6 4.8 0.00 0.00 0.00 94 1013.7
20260507051304 8 67 1.6 3.2 0.00 0.00 0.00 97 1013.6
20260507050304 8 153 1.6 3.2 0.00 0.00 0.00 97 1013.6
20260507044804 6 70 1.6 3.2 0.00 0.00 0.00 97 1013.8
20260507043304 6 70 1.6 3.2 0.00 0.00 0.00 97 1014.2
20260507041804 6 82 0.0 3.2 0.00 0.00 0.00 97 1014.1
20260507040804 6 70 1.6 3.2 0.00 0.00 0.00 97 1014.1
20260507040304 6 76 1.6 3.2 0.00 0.00 0.00 97 1014.2
20260507034804 6 65 1.6 3.2 0.00 0.00 0.00 97 1014.0
20260507033805 6 66 1.6 1.6 0.00 0.00 0.00 97 1014.1
20260507033304 6 135 0.0 1.6 0.00 0.00 0.00 97 1014.0
20260507031804 7 132 1.6 1.6 0.00 0.00 0.00 97 1014.1
20260507030304 7 150 0.0 3.2 0.00 0.00 0.00 96 1014.0
20260507024804 7 100 1.6 3.2 0.00 0.00 0.00 97 1013.8
20260507023303 7 144 0.0 3.2 0.00 0.00 0.00 96 1014.1
20260507021804 7 75 1.6 3.2 0.00 0.00 0.00 96 1014.0
20260507021304 7 103 1.6 3.2 0.00 0.00 0.00 96 1014.1
20260507020804 7 92 0.0 1.6 0.00 0.00 0.00 96 1014.0
20260507020304 8 111 1.6 3.2 0.00 0.00 0.00 96 1014.0
20260507014307 7 107 0.0 3.2 0.00 0.00 0.00 96 1014.0
20260507013805 7 81 3.2 3.2 0.00 0.00 0.00 96 1014.0
20260507013305 7 116 0.0 3.2 0.00 0.00 0.00 96 1014.1
20260507011805 8 95 0.0 1.6 0.00 0.03 0.00 95 1013.9
20260507011306 8 95 3.2 3.2 0.00 0.08 0.00 95 1014.1
20260507010806 8 91 1.6 3.2 0.00 0.18 0.00 95 1013.9
20260507010306 8 57 0.0 3.2 0.00 0.41 0.00 95 1013.9
20260507004806 8 85 1.6 1.6 0.00 1.22 0.00 94 1014.2
20260507004306 8 106 0.0 1.6 0.00 1.32 0.00 94 1013.9
20260507003805 8 27 0.0 3.2 0.00 1.47 0.00 93 1014.0
20260507003305 9 101 0.0 3.2 0.00 1.63 0.00 93 1014.1
20260507001806 10 124 1.6 3.2 0.00 1.70 0.00 92 1014.0
20260507001305 10 116 0.0 1.6 0.00 1.70 0.00 92 1013.8
20260507000806 10 241 0.0 3.2 0.00 1.75 0.00 92 1013.8
20260507000306 10 277 1.6 8.0 0.00 1.88 0.00 93 1014.0
20260506234807 9 23 1.6 3.2 0.00 1.96 0.00 94 1014.1
20260506234305 8 169 1.6 3.2 0.00 1.96 0.00 93 1014.1
20260506233805 9 138 1.6 3.2 0.00 1.96 0.00 93 1014.0
20260506233305 9 131 1.6 3.2 0.00 1.96 0.00 92 1014.2
20260506231805 10 136 1.6 3.2 0.00 1.96 0.00 89 1014.2
20260506231305 10 78 1.6 3.2 0.00 1.96 0.00 88 1014.1
20260506230305 11 60 1.6 4.8 0.00 1.96 0.00 87 1014.2
20260506224806 11 190 1.6 9.7 0.00 1.96 0.00 85 1014.0
20260506224305 11 70 1.6 4.8 0.00 1.96 0.00 85 1014.1
20260506223805 11 31 3.2 9.7 0.00 1.96 0.00 84 1014.0
20260506223305 11 290 1.6 16.1 0.00 1.96 0.00 84 1014.1
20260506221805 10 191 1.6 3.2 0.00 1.96 0.00 86 1014.1
20260506221305 10 213 1.6 3.2 0.00 1.96 0.00 86 1014.1
20260506220805 10 79 0.0 4.8 0.00 1.96 0.00 87 1014.0
20260506220306 10 225 0.0 8.0 0.00 1.96 0.00 86 1014.2
20260506214805 8 140 1.6 3.2 0.00 1.96 1.96 89 1014.2
20260506214305 8 115 1.6 3.2 0.00 1.96 1.96 90 1014.3
20260506213805 8 232 1.6 3.2 0.00 1.96 1.96 90 1014.3
20260506213305 8 91 1.6 3.2 0.00 1.96 1.96 89 1014.3
20260506211805 9 115 1.6 3.2 0.00 1.96 1.96 87 1014.1
20260506211305 10 86 1.6 3.2 0.00 1.96 1.96 84 1013.7
20260506210805 10 142 1.6 3.2 0.00 1.96 1.96 81 1013.9
20260506203805 10 47 0.0 3.2 0.00 1.96 1.96 82 1014.0
20260506203305 9 58 0.0 3.2 0.00 1.96 1.96 89 1013.8
20260506201304 10 148 0.0 1.6 0.00 1.96 1.96 88 1013.7
20260506200806 10 135 0.0 1.6 0.00 1.96 1.96 86 1013.2
20260506200306 10 113 1.6 3.2 0.00 1.96 1.96 85 1013.4
20260506194805 11 95 0.0 1.6 0.00 1.96 1.96 80 1013.0
20260506194305 11 51 0.0 1.6 0.00 1.96 1.96 80 1012.8
20260506193805 11 331 0.0 1.6 0.00 1.96 1.96 80 1012.8
20260506193306 11 260 0.0 4.8 0.00 1.96 1.96 80 1012.6
20260506191806 12 276 0.0 4.8 0.00 1.96 1.96 78 1012.3
20260506191304 13 207 3.2 8.0 0.00 1.96 1.96 76 1012.1
20260506190806 13 278 3.2 8.0 0.00 1.96 1.96 76 1011.9
20260506190305 12 270 1.6 4.8 0.00 1.96 1.96 75 1011.9
20260506184805 13 242 0.0 9.7 0.00 1.96 1.96 74 1011.5
20260506184304 13 55 0.0 3.2 0.00 1.96 1.96 72 1011.4
20260506183805 13 280 1.6 16.1 0.00 1.96 1.96 71 1011.2
20260506183304 14 268 3.2 9.7 0.00 1.96 1.96 70 1011.0
20260506181804 15 294 3.2 8.0 0.00 1.96 1.96 67 1011.2
20260506180806 15 273 3.2 8.0 0.00 1.96 1.96 65 1010.8
20260506180305 15 304 3.2 12.9 0.00 1.96 1.96 65 1010.8
20260506174805 16 306 3.2 14.5 0.00 1.96 1.96 62 1010.5
20260506174305 16 280 4.8 16.1 0.00 1.96 1.96 60 1010.5
20260506173805 17 276 3.2 4.8 0.00 1.96 1.96 58 1010.3
20260506173305 17 300 3.2 11.3 0.00 1.96 1.96 58 1010.2
20260506171305 17 304 4.8 11.3 0.00 1.96 1.96 55 1010.1
20260506170306 18 312 1.6 22.5 0.00 1.96 1.96 53 1009.8
20260506164304 18 316 3.2 11.3 0.00 1.96 1.96 49 1010.0
20260506163806 18 297 3.2 9.7 0.00 1.96 1.96 49 1010.1
20260506163305 18 303 1.6 16.1 0.00 1.96 1.96 47 1010.1
20260506161806 18 305 4.8 12.9 0.00 1.96 1.96 45 1009.8
20260506161304 18 295 3.2 9.7 0.00 1.96 1.96 44 1009.9
20260506160806 18 308 3.2 16.1 0.00 1.96 1.96 44 1010.2
20260506160304 18 315 3.2 20.9 0.00 1.96 1.96 44 1010.0
20260506154805 20 303 1.6 9.7 0.00 1.96 1.96 43 1009.7
20260506154304 19 289 4.8 16.1 0.00 1.96 1.96 42 1009.8
20260506151805 19 278 6.4 16.1 0.00 1.96 1.96 45 1009.6
20260506150804 20 301 4.8 14.5 0.00 1.96 1.96 44 1009.6
20260506144805 20 290 3.2 16.1 0.00 1.96 1.96 42 1009.7
20260506144305 20 292 8.0 16.1 0.00 1.96 1.96 41 1009.5
20260506143806 19 298 4.8 22.5 0.00 1.96 1.96 42 1009.8
20260506143305 20 302 4.8 20.9 0.00 1.96 1.96 43 1009.8
20260506141805 20 311 3.2 14.5 0.00 1.96 1.96 46 1009.6
20260506141304 20 288 3.2 22.5 0.00 1.96 1.96 46 1009.5
20260506140804 19 282 3.2 12.9 0.00 1.96 1.96 48 1009.6
20260506140305 19 254 4.8 20.9 0.00 1.96 1.96 47 1009.6
20260506134804 19 54 3.2 11.3 0.00 1.96 1.96 46 1009.9
20260506134304 19 299 4.8 16.1 0.00 1.96 1.96 48 1009.9
20260506133805 20 322 3.2 9.7 0.00 1.96 1.96 46 1009.6
20260506133304 20 345 3.2 14.5 0.00 1.96 1.96 49 1009.8
20260506131805 19 288 1.6 16.1 0.00 1.96 1.96 49 1010.1
20260506131306 18 333 3.2 19.3 0.00 1.96 1.96 49 1010.0
20260506130804 19 344 3.2 12.9 0.00 1.96 1.96 46 1009.8
20260506130304 17 316 4.8 11.3 0.00 1.96 1.96 51 1010.3
20260506124805 17 25 1.6 8.0 0.00 1.96 1.96 51 1010.1
20260506124304 17 270 1.6 9.7 0.00 1.96 1.96 52 1010.4
20260506123306 17 14 4.8 19.3 0.00 1.96 1.96 53 1010.3
20260506121804 18 289 4.8 14.5 0.00 1.96 1.96 54 1010.3
20260506121306 18 333 1.6 12.9 0.00 1.96 1.96 54 1010.4
20260506120805 18 24 4.8 12.9 0.00 1.96 1.96 52 1010.3
20260506120305 18 287 3.2 16.1 0.00 1.96 1.96 55 1010.3
20260506114304 18 20 1.6 8.0 0.00 1.96 1.96 54 1010.5
20260506113806 18 7 3.2 12.9 0.00 1.96 1.96 55 1010.3
20260506113305 18 281 4.8 20.9 0.00 1.96 1.96 54 1010.3
20260506111805 18 316 1.6 12.9 0.00 1.96 1.96 56 1010.5
20260506111305 18 295 3.2 9.7 0.00 1.96 1.96 56 1010.6
20260506110804 18 320 3.2 11.3 0.00 1.96 1.96 58 1010.7
20260506110304 18 316 1.6 16.1 0.00 1.96 1.96 60 1010.8